Location: Bosmont
(49.7318°N, 3.8587°E)
Time: 12:01:28
(UTC+00:00)

Cosmos 968 Rocket - Pass Details

Date: 08 February 2023
Orbit: 739 x 770 km, 74.0° (Epoch: 23 March)

Event Time Altitude Azimuth Distance (km) Brightness Sun altitude
Rises 19:09:06 0° 207° (SSW) 3,206 7.0 -22.6°
Reaches altitude 10° 19:11:28 10° 210° (SSW) 2,289 6.3 -23.0°
Maximum altitude 19:16:40 74° 295° (WNW) 801 3.6 -23.8°
Enters shadow 19:20:26 19° 18° (NNE) 1,756 5.2 -24.5°
